owner,sensor,date,latitude,longitude,vertical_datum,wind_speed,wind_to_direction,wind_speed_of_gust,qcFlag 
WAVCIS,ioos:station:WAVCIS:CSI09:1,2012-10-01T00:00:00Z,29.1015,-89.9782,0.0,6.165,208.0,,'11111222,11111222,99999999' 
WAVCIS,ioos:station:WAVCIS:CSI09:1,2012-10-01T01:00:00Z,29.1015,-89.9782,0.0,8.24,217.0,,'11111222,11111222,99999999' 
WAVCIS,ioos:station:WAVCIS:CSI09:1,2012-10-01T02:00:00Z,29.1015,-89.9782,0.0,14.05,227.0,,'11111222,11111222,99999999' 
WAVCIS,ioos:station:WAVCIS:CSI09:1,2012-10-01T03:00:00Z,29.1015,-89.9782,0.0,11.86,222.0,,'11111222,11111222,99999999' 
WAVCIS,ioos:station:WAVCIS:CSI09:1,2012-10-01T04:00:00Z,29.1015,-89.9782,0.0,11.57,225.0,,'11111222,11111222,99999999' 
WAVCIS,ioos:station:WAVCIS:CSI09:1,2012-10-01T05:00:00Z,29.1015,-89.9782,0.0,13.15,229.0,,'11111222,11111222,99999999' 
WAVCIS,ioos:station:WAVCIS:CSI09:1,2012-10-01T06:00:00Z,29.1015,-89.9782,0.0,10.65,226.0,,'11111222,11111222,99999999' 
WAVCIS,ioos:station:WAVCIS:CSI09:1,2012-10-01T07:00:00Z,29.1015,-89.9782,0.0,11.36,260.0,,'11111222,11111222,99999999' 
WAVCIS,ioos:station:WAVCIS:CSI09:1,2012-10-01T08:00:00Z,29.1015,-89.9782,0.0,12.83,255.0,,'11111222,11111222,99999999' 
WAVCIS,ioos:station:WAVCIS:CSI09:1,2012-10-01T09:00:00Z,29.1015,-89.9782,0.0,12.68,267.0,,'11111222,11111222,99999999' 
WAVCIS,ioos:station:WAVCIS:CSI09:1,2012-10-01T10:00:00Z,29.1015,-89.9782,0.0,13.57,281.0,,'11111222,11111222,99999999' 
WAVCIS,ioos:station:WAVCIS:CSI09:1,2012-10-01T11:00:00Z,29.1015,-89.9782,0.0,12.08,277.0,,'11111222,11111222,99999999' 
WAVCIS,ioos:station:WAVCIS:CSI09:1,2012-10-01T12:00:00Z,29.1015,-89.9782,0.0,11.61,283.0,,'11111222,11111222,99999999' 
WAVCIS,ioos:station:WAVCIS:CSI09:1,2012-10-01T13:00:00Z,29.1015,-89.9782,0.0,11.09,282.0,,'11111222,11111222,99999999' 
WAVCIS,ioos:station:WAVCIS:CSI09:1,2012-10-01T14:00:00Z,29.1015,-89.9782,0.0,11.11,283.0,,'11111222,11111222,99999999' 
WAVCIS,ioos:station:WAVCIS:CSI09:1,2012-10-01T15:00:00Z,29.1015,-89.9782,0.0,12.13,282.0,,'11111222,11111222,99999999' 
WAVCIS,ioos:station:WAVCIS:CSI09:1,2012-10-01T16:00:00Z,29.1015,-89.9782,0.0,12.52,275.0,,'11111222,11111222,99999999' 
WAVCIS,ioos:station:WAVCIS:CSI09:1,2012-10-01T17:00:00Z,29.1015,-89.9782,0.0,11.57,274.0,,'11111222,11111222,99999999' 
WAVCIS,ioos:station:WAVCIS:CSI09:1,2012-10-01T18:00:00Z,29.1015,-89.9782,0.0,9.44,277.0,,'11111222,11111222,99999999' 
WAVCIS,ioos:station:WAVCIS:CSI09:1,2012-10-01T19:00:00Z,29.1015,-89.9782,0.0,9.03,279.0,,'11111222,11111222,99999999' 
WAVCIS,ioos:station:WAVCIS:CSI09:1,2012-10-01T20:00:00Z,29.1015,-89.9782,0.0,8.0,292.0,,'11111222,11111222,99999999' 
WAVCIS,ioos:station:WAVCIS:CSI09:1,2012-10-01T21:00:00Z,29.1015,-89.9782,0.0,6.523,288.0,,'11111222,11111222,99999999' 
WAVCIS,ioos:station:WAVCIS:CSI09:1,2012-10-01T22:00:00Z,29.1015,-89.9782,0.0,9.31,292.0,,'11111222,11111222,99999999' 
WAVCIS,ioos:station:WAVCIS:CSI09:1,2012-10-01T23:00:00Z,29.1015,-89.9782,0.0,8.18,308.0,,'11111222,11111222,99999999' 
WAVCIS,ioos:station:WAVCIS:CSI09:1,2012-10-02T00:00:00Z,29.1015,-89.9782,0.0,8.79,305.0,,'11111222,11111222,99999999' 
WAVCIS,ioos:station:WAVCIS:CSI09:1,2012-10-02T01:00:00Z,29.1015,-89.9782,0.0,9.23,312.0,,'11111222,11111222,99999999' 
WAVCIS,ioos:station:WAVCIS:CSI09:1,2012-10-02T02:00:00Z,29.1015,-89.9782,0.0,9.19,311.0,,'11111222,11111222,99999999' 
WAVCIS,ioos:station:WAVCIS:CSI09:1,2012-10-02T03:00:00Z,29.1015,-89.9782,0.0,9.16,314.0,,'11111222,11111222,99999999' 
WAVCIS,ioos:station:WAVCIS:CSI09:1,2012-10-02T04:00:00Z,29.1015,-89.9782,0.0,8.03,317.0,,'11111222,11111222,99999999' 
WAVCIS,ioos:station:WAVCIS:CSI09:1,2012-10-02T05:00:00Z,29.1015,-89.9782,0.0,7.21,316.0,,'11111222,11111222,99999999' 
WAVCIS,ioos:station:WAVCIS:CSI09:1,2012-10-02T06:00:00Z,29.1015,-89.9782,0.0,5.547,314.0,,'11111222,11111222,99999999' 
WAVCIS,ioos:station:WAVCIS:CSI09:1,2012-10-02T07:00:00Z,29.1015,-89.9782,0.0,4.504,323.0,,'11111222,11111222,99999999' 
WAVCIS,ioos:station:WAVCIS:CSI09:1,2012-10-02T08:00:00Z,29.1015,-89.9782,0.0,5.609,320.0,,'11111222,11111222,99999999' 
WAVCIS,ioos:station:WAVCIS:CSI09:1,2012-10-02T09:00:00Z,29.1015,-89.9782,0.0,4.704,317.0,,'11111222,11111222,99999999' 
WAVCIS,ioos:station:WAVCIS:CSI09:1,2012-10-02T10:00:00Z,29.1015,-89.9782,0.0,3.489,317.0,,'11111222,11111222,99999999' 
WAVCIS,ioos:station:WAVCIS:CSI09:1,2012-10-02T11:00:00Z,29.1015,-89.9782,0.0,5.86,313.0,,'11111222,11111222,99999999' 
WAVCIS,ioos:station:WAVCIS:CSI09:1,2012-10-02T12:00:00Z,29.1015,-89.9782,0.0,4.811,322.0,,'11111222,11111222,99999999' 
WAVCIS,ioos:station:WAVCIS:CSI09:1,2012-10-02T13:00:00Z,29.1015,-89.9782,0.0,4.857,335.0,,'11111222,11111222,99999999' 
WAVCIS,ioos:station:WAVCIS:CSI09:1,2012-10-02T14:00:00Z,29.1015,-89.9782,0.0,2.543,0.0,,'11111222,11111222,99999999' 
WAVCIS,ioos:station:WAVCIS:CSI09:1,2012-10-02T15:00:00Z,29.1015,-89.9782,0.0,1.725,357.0,,'11111222,11111222,99999999' 
WAVCIS,ioos:station:WAVCIS:CSI09:1,2012-10-02T16:00:00Z,29.1015,-89.9782,0.0,1.121,350.0,,'11111222,11111222,99999999' 
WAVCIS,ioos:station:WAVCIS:CSI09:1,2012-10-02T17:00:00Z,29.1015,-89.9782,0.0,1.051,298.0,,'11111222,11111222,99999999' 
WAVCIS,ioos:station:WAVCIS:CSI09:1,2012-10-02T18:00:00Z,29.1015,-89.9782,0.0,0.718,13.0,,'11111222,11111222,99999999' 
WAVCIS,ioos:station:WAVCIS:CSI09:1,2012-10-02T19:00:00Z,29.1015,-89.9782,0.0,1.141,94.0,,'11111222,11111222,99999999' 
WAVCIS,ioos:station:WAVCIS:CSI09:1,2012-10-02T20:00:00Z,29.1015,-89.9782,0.0,1.203,111.0,,'11111222,11111222,99999999' 
WAVCIS,ioos:station:WAVCIS:CSI09:1,2012-10-02T21:00:00Z,29.1015,-89.9782,0.0,1.19,102.0,,'11111222,11111222,99999999' 
WAVCIS,ioos:station:WAVCIS:CSI09:1,2012-10-02T22:00:00Z,29.1015,-89.9782,0.0,1.245,156.0,,'11111222,11111222,99999999' 
WAVCIS,ioos:station:WAVCIS:CSI09:1,2012-10-02T23:00:00Z,29.1015,-89.9782,0.0,2.164,178.0,,'11111222,11111222,99999999' 
WAVCIS,ioos:station:WAVCIS:CSI09:1,2012-10-03T00:00:00Z,29.1015,-89.9782,0.0,1.868,152.0,,'11111222,11111222,99999999' 
WAVCIS,ioos:station:WAVCIS:CSI09:1,2012-10-03T01:00:00Z,29.1015,-89.9782,0.0,2.24,138.0,,'11111222,11111222,99999999' 
WAVCIS,ioos:station:WAVCIS:CSI09:1,2012-10-03T02:00:00Z,29.1015,-89.9782,0.0,2.3,144.0,,'11111222,11111222,99999999' 
WAVCIS,ioos:station:WAVCIS:CSI09:1,2012-10-03T03:00:00Z,29.1015,-89.9782,0.0,2.654,151.0,,'11111222,11111222,99999999' 
WAVCIS,ioos:station:WAVCIS:CSI09:1,2012-10-03T04:00:00Z,29.1015,-89.9782,0.0,3.168,137.0,,'11111222,11111222,99999999' 
WAVCIS,ioos:station:WAVCIS:CSI09:1,2012-10-03T05:00:00Z,29.1015,-89.9782,0.0,4.409,140.0,,'11111222,11111222,99999999' 
WAVCIS,ioos:station:WAVCIS:CSI09:1,2012-10-03T06:00:00Z,29.1015,-89.9782,0.0,3.964,138.0,,'11111222,11111222,99999999' 
WAVCIS,ioos:station:WAVCIS:CSI09:1,2012-10-03T07:00:00Z,29.1015,-89.9782,0.0,4.833,145.0,,'11111222,11111222,99999999' 
WAVCIS,ioos:station:WAVCIS:CSI09:1,2012-10-03T08:00:00Z,29.1015,-89.9782,0.0,4.553,134.0,,'11111222,11111222,99999999' 
WAVCIS,ioos:station:WAVCIS:CSI09:1,2012-10-03T09:00:00Z,29.1015,-89.9782,0.0,5.171,136.0,,'11111222,11111222,99999999' 
WAVCIS,ioos:station:WAVCIS:CSI09:1,2012-10-03T10:00:00Z,29.1015,-89.9782,0.0,5.294,125.0,,'11111222,11111222,99999999' 
WAVCIS,ioos:station:WAVCIS:CSI09:1,2012-10-03T11:00:00Z,29.1015,-89.9782,0.0,6.933,113.0,,'11111222,11111222,99999999' 
WAVCIS,ioos:station:WAVCIS:CSI09:1,2012-10-03T12:00:00Z,29.1015,-89.9782,0.0,5.584,105.0,,'11111222,11111222,99999999' 
WAVCIS,ioos:station:WAVCIS:CSI09:1,2012-10-03T13:00:00Z,29.1015,-89.9782,0.0,7.29,117.0,,'11111222,11111222,99999999' 
WAVCIS,ioos:station:WAVCIS:CSI09:1,2012-10-03T14:00:00Z,29.1015,-89.9782,0.0,7.09,130.0,,'11111222,11111222,99999999' 
WAVCIS,ioos:station:WAVCIS:CSI09:1,2012-10-03T15:00:00Z,29.1015,-89.9782,0.0,10.9,6.0,,'11111222,11111222,99999999' 
WAVCIS,ioos:station:WAVCIS:CSI09:1,2012-10-03T16:00:00Z,29.1015,-89.9782,0.0,7.06,41.0,,'11111222,11111222,99999999' 
WAVCIS,ioos:station:WAVCIS:CSI09:1,2012-10-03T17:00:00Z,29.1015,-89.9782,0.0,6.18,56.0,,'11111222,11111222,99999999' 
WAVCIS,ioos:station:WAVCIS:CSI09:1,2012-10-03T18:00:00Z,29.1015,-89.9782,0.0,6.599,70.0,,'11111222,11111222,99999999' 
WAVCIS,ioos:station:WAVCIS:CSI09:1,2012-10-03T19:00:00Z,29.1015,-89.9782,0.0,5.018,113.0,,'11111222,11111222,99999999' 
WAVCIS,ioos:station:WAVCIS:CSI09:1,2012-10-03T20:00:00Z,29.1015,-89.9782,0.0,5.225,115.0,,'11111222,11111222,99999999' 
WAVCIS,ioos:station:WAVCIS:CSI09:1,2012-10-03T21:00:00Z,29.1015,-89.9782,0.0,5.254,119.0,,'11111222,11111222,99999999' 
WAVCIS,ioos:station:WAVCIS:CSI09:1,2012-10-03T22:00:00Z,29.1015,-89.9782,0.0,5.116,107.0,,'11111222,11111222,99999999' 
WAVCIS,ioos:station:WAVCIS:CSI09:1,2012-10-03T23:00:00Z,29.1015,-89.9782,0.0,5.391,101.0,,'11111222,11111222,99999999' 
WAVCIS,ioos:station:WAVCIS:CSI09:1,2012-10-04T00:00:00Z,29.1015,-89.9782,0.0,6.265,106.0,,'11111222,11111222,99999999' 
WAVCIS,ioos:station:WAVCIS:CSI09:1,2012-10-04T01:00:00Z,29.1015,-89.9782,0.0,5.925,96.0,,'11111222,11111222,99999999' 
WAVCIS,ioos:station:WAVCIS:CSI09:1,2012-10-04T02:00:00Z,29.1015,-89.9782,0.0,6.456,92.0,,'11111222,11111222,99999999' 
WAVCIS,ioos:station:WAVCIS:CSI09:1,2012-10-04T03:00:00Z,29.1015,-89.9782,0.0,5.737,103.0,,'11111222,11111222,99999999' 
WAVCIS,ioos:station:WAVCIS:CSI09:1,2012-10-04T04:00:00Z,29.1015,-89.9782,0.0,5.236,105.0,,'11111222,11111222,99999999' 
WAVCIS,ioos:station:WAVCIS:CSI09:1,2012-10-04T05:00:00Z,29.1015,-89.9782,0.0,5.101,98.0,,'11111222,11111222,99999999' 
WAVCIS,ioos:station:WAVCIS:CSI09:1,2012-10-04T06:00:00Z,29.1015,-89.9782,0.0,4.919,98.0,,'11111222,11111222,99999999' 
WAVCIS,ioos:station:WAVCIS:CSI09:1,2012-10-04T07:00:00Z,29.1015,-89.9782,0.0,5.076,94.0,,'11111222,11111222,99999999' 
WAVCIS,ioos:station:WAVCIS:CSI09:1,2012-10-04T08:00:00Z,29.1015,-89.9782,0.0,4.35,91.0,,'11111222,11111222,99999999' 
WAVCIS,ioos:station:WAVCIS:CSI09:1,2012-10-04T09:00:00Z,29.1015,-89.9782,0.0,4.733,78.0,,'11111222,11111222,99999999' 
WAVCIS,ioos:station:WAVCIS:CSI09:1,2012-10-04T10:00:00Z,29.1015,-89.9782,0.0,5.783,74.0,,'11111222,11111222,99999999' 
WAVCIS,ioos:station:WAVCIS:CSI09:1,2012-10-04T11:00:00Z,29.1015,-89.9782,0.0,6.654,65.0,,'11111222,11111222,99999999' 
WAVCIS,ioos:station:WAVCIS:CSI09:1,2012-10-04T12:00:00Z,29.1015,-89.9782,0.0,4.21,142.0,,'11111222,11111222,99999999' 
WAVCIS,ioos:station:WAVCIS:CSI09:1,2012-10-04T13:00:00Z,29.1015,-89.9782,0.0,5.344,78.0,,'11111222,11111222,99999999' 
WAVCIS,ioos:station:WAVCIS:CSI09:1,2012-10-04T14:00:00Z,29.1015,-89.9782,0.0,3.748,132.0,,'11111222,11111222,99999999' 
WAVCIS,ioos:station:WAVCIS:CSI09:1,2012-10-04T15:00:00Z,29.1015,-89.9782,0.0,4.045,76.0,,'11111222,11111222,99999999' 
WAVCIS,ioos:station:WAVCIS:CSI09:1,2012-10-04T16:00:00Z,29.1015,-89.9782,0.0,5.723,64.0,,'11111222,11111222,99999999' 
WAVCIS,ioos:station:WAVCIS:CSI09:1,2012-10-04T17:00:00Z,29.1015,-89.9782,0.0,3.121,97.0,,'11111222,11111222,99999999' 
WAVCIS,ioos:station:WAVCIS:CSI09:1,2012-10-04T18:00:00Z,29.1015,-89.9782,0.0,5.182,82.0,,'11111222,11111222,99999999' 
WAVCIS,ioos:station:WAVCIS:CSI09:1,2012-10-04T19:00:00Z,29.1015,-89.9782,0.0,3.46,85.0,,'11111222,11111222,99999999' 
WAVCIS,ioos:station:WAVCIS:CSI09:1,2012-10-04T20:00:00Z,29.1015,-89.9782,0.0,4.275,56.0,,'11111222,11111222,99999999' 
WAVCIS,ioos:station:WAVCIS:CSI09:1,2012-10-04T21:00:00Z,29.1015,-89.9782,0.0,4.753,63.0,,'11111222,11111222,99999999' 
WAVCIS,ioos:station:WAVCIS:CSI09:1,2012-10-04T22:00:00Z,29.1015,-89.9782,0.0,4.157,92.0,,'11111222,11111222,99999999' 
WAVCIS,ioos:station:WAVCIS:CSI09:1,2012-10-04T23:00:00Z,29.1015,-89.9782,0.0,5.786,70.0,,'11111222,11111222,99999999' 
WAVCIS,ioos:station:WAVCIS:CSI09:1,2012-10-05T00:00:00Z,29.1015,-89.9782,0.0,6.052,81.0,,'11111222,11111222,99999999' 
WAVCIS,ioos:station:WAVCIS:CSI09:1,2012-10-05T01:00:00Z,29.1015,-89.9782,0.0,5.455,91.0,,'11111222,11111222,99999999' 
WAVCIS,ioos:station:WAVCIS:CSI09:1,2012-10-05T02:00:00Z,29.1015,-89.9782,0.0,5.097,74.0,,'11111222,11111222,99999999' 
WAVCIS,ioos:station:WAVCIS:CSI09:1,2012-10-05T03:00:00Z,29.1015,-89.9782,0.0,5.474,81.0,,'11111222,11111222,99999999' 
WAVCIS,ioos:station:WAVCIS:CSI09:1,2012-10-05T04:00:00Z,29.1015,-89.9782,0.0,4.896,85.0,,'11111222,11111222,99999999' 
WAVCIS,ioos:station:WAVCIS:CSI09:1,2012-10-05T05:00:00Z,29.1015,-89.9782,0.0,4.27,88.0,,'11111222,11111222,99999999' 
WAVCIS,ioos:station:WAVCIS:CSI09:1,2012-10-05T06:00:00Z,29.1015,-89.9782,0.0,4.711,78.0,,'11111222,11111222,99999999' 
WAVCIS,ioos:station:WAVCIS:CSI09:1,2012-10-05T07:00:00Z,29.1015,-89.9782,0.0,4.483,84.0,,'11111222,11111222,99999999' 
WAVCIS,ioos:station:WAVCIS:CSI09:1,2012-10-05T08:00:00Z,29.1015,-89.9782,0.0,4.317,72.0,,'11111222,11111222,99999999' 
WAVCIS,ioos:station:WAVCIS:CSI09:1,2012-10-05T09:00:00Z,29.1015,-89.9782,0.0,5.075,56.0,,'11111222,11111222,99999999' 
WAVCIS,ioos:station:WAVCIS:CSI09:1,2012-10-05T10:00:00Z,29.1015,-89.9782,0.0,5.191,52.0,,'11111222,11111222,99999999' 
WAVCIS,ioos:station:WAVCIS:CSI09:1,2012-10-05T11:00:00Z,29.1015,-89.9782,0.0,4.97,37.0,,'11111222,11111222,99999999' 
WAVCIS,ioos:station:WAVCIS:CSI09:1,2012-10-05T12:00:00Z,29.1015,-89.9782,0.0,5.8,30.0,,'11111222,11111222,99999999' 
WAVCIS,ioos:station:WAVCIS:CSI09:1,2012-10-05T13:00:00Z,29.1015,-89.9782,0.0,6.107,35.0,,'11111222,11111222,99999999' 
WAVCIS,ioos:station:WAVCIS:CSI09:1,2012-10-05T14:00:00Z,29.1015,-89.9782,0.0,6.564,31.0,,'11111222,11111222,99999999' 
WAVCIS,ioos:station:WAVCIS:CSI09:1,2012-10-05T15:00:00Z,29.1015,-89.9782,0.0,5.758,34.0,,'11111222,11111222,99999999' 
WAVCIS,ioos:station:WAVCIS:CSI09:1,2012-10-05T16:00:00Z,29.1015,-89.9782,0.0,5.093,28.0,,'11111222,11111222,99999999' 
WAVCIS,ioos:station:WAVCIS:CSI09:1,2012-10-05T17:00:00Z,29.1015,-89.9782,0.0,4.717,31.0,,'11111222,11111222,99999999' 
WAVCIS,ioos:station:WAVCIS:CSI09:1,2012-10-05T18:00:00Z,29.1015,-89.9782,0.0,4.515,40.0,,'11111222,11111222,99999999' 
WAVCIS,ioos:station:WAVCIS:CSI09:1,2012-10-05T19:00:00Z,29.1015,-89.9782,0.0,4.633,62.0,,'11111222,11111222,99999999' 
WAVCIS,ioos:station:WAVCIS:CSI09:1,2012-10-05T20:00:00Z,29.1015,-89.9782,0.0,4.438,55.0,,'11111222,11111222,99999999' 
WAVCIS,ioos:station:WAVCIS:CSI09:1,2012-10-05T21:00:00Z,29.1015,-89.9782,0.0,4.35,59.0,,'11111222,11111222,99999999' 
WAVCIS,ioos:station:WAVCIS:CSI09:1,2012-10-05T22:00:00Z,29.1015,-89.9782,0.0,4.233,61.0,,'11111222,11111222,99999999' 
WAVCIS,ioos:station:WAVCIS:CSI09:1,2012-10-05T23:00:00Z,29.1015,-89.9782,0.0,3.354,64.0,,'11111222,11111222,99999999' 
WAVCIS,ioos:station:WAVCIS:CSI09:1,2012-10-06T00:00:00Z,29.1015,-89.9782,0.0,2.679,51.0,,'11111222,11111222,99999999' 
WAVCIS,ioos:station:WAVCIS:CSI09:1,2012-10-06T01:00:00Z,29.1015,-89.9782,0.0,2.435,41.0,,'11111222,11111222,99999999' 
WAVCIS,ioos:station:WAVCIS:CSI09:1,2012-10-06T02:00:00Z,29.1015,-89.9782,0.0,1.863,66.0,,'11111222,11111222,99999999' 
WAVCIS,ioos:station:WAVCIS:CSI09:1,2012-10-06T03:00:00Z,29.1015,-89.9782,0.0,1.569,79.0,,'11111222,11111222,99999999' 
WAVCIS,ioos:station:WAVCIS:CSI09:1,2012-10-06T04:00:00Z,29.1015,-89.9782,0.0,1.708,66.0,,'11111222,11111222,99999999' 
WAVCIS,ioos:station:WAVCIS:CSI09:1,2012-10-06T05:00:00Z,29.1015,-89.9782,0.0,1.732,82.0,,'11111222,11111222,99999999' 
WAVCIS,ioos:station:WAVCIS:CSI09:1,2012-10-06T06:00:00Z,29.1015,-89.9782,0.0,1.419,41.0,,'11111222,11111222,99999999' 
WAVCIS,ioos:station:WAVCIS:CSI09:1,2012-10-06T07:00:00Z,29.1015,-89.9782,0.0,2.269,58.0,,'11111222,11111222,99999999' 
WAVCIS,ioos:station:WAVCIS:CSI09:1,2012-10-06T08:00:00Z,29.1015,-89.9782,0.0,2.42,59.0,,'11111222,11111222,99999999' 
WAVCIS,ioos:station:WAVCIS:CSI09:1,2012-10-06T09:00:00Z,29.1015,-89.9782,0.0,2.4,24.0,,'11111222,11111222,99999999' 
WAVCIS,ioos:station:WAVCIS:CSI09:1,2012-10-06T10:00:00Z,29.1015,-89.9782,0.0,2.924,358.0,,'11111222,11111222,99999999' 
WAVCIS,ioos:station:WAVCIS:CSI09:1,2012-10-06T11:00:00Z,29.1015,-89.9782,0.0,3.872,355.0,,'11111222,11111222,99999999' 
WAVCIS,ioos:station:WAVCIS:CSI09:1,2012-10-06T12:00:00Z,29.1015,-89.9782,0.0,5.327,10.0,,'11111222,11111222,99999999' 
WAVCIS,ioos:station:WAVCIS:CSI09:1,2012-10-06T13:00:00Z,29.1015,-89.9782,0.0,4.857,23.0,,'11111222,11111222,99999999' 
WAVCIS,ioos:station:WAVCIS:CSI09:1,2012-10-06T14:00:00Z,29.1015,-89.9782,0.0,5.324,3.0,,'11111222,11111222,99999999' 
WAVCIS,ioos:station:WAVCIS:CSI09:1,2012-10-06T15:00:00Z,29.1015,-89.9782,0.0,4.303,21.0,,'11111222,11111222,99999999' 
WAVCIS,ioos:station:WAVCIS:CSI09:1,2012-10-06T16:00:00Z,29.1015,-89.9782,0.0,4.438,26.0,,'11111222,11111222,99999999' 
WAVCIS,ioos:station:WAVCIS:CSI09:1,2012-10-06T17:00:00Z,29.1015,-89.9782,0.0,3.998,31.0,,'11111222,11111222,99999999' 
WAVCIS,ioos:station:WAVCIS:CSI09:1,2012-10-06T18:00:00Z,29.1015,-89.9782,0.0,3.916,37.0,,'11111222,11111222,99999999' 
WAVCIS,ioos:station:WAVCIS:CSI09:1,2012-10-06T19:00:00Z,29.1015,-89.9782,0.0,2.715,56.0,,'11111222,11111222,99999999' 
WAVCIS,ioos:station:WAVCIS:CSI09:1,2012-10-06T20:00:00Z,29.1015,-89.9782,0.0,3.207,91.0,,'11111222,11111222,99999999' 
WAVCIS,ioos:station:WAVCIS:CSI09:1,2012-10-06T21:00:00Z,29.1015,-89.9782,0.0,3.271,85.0,,'11111222,11111222,99999999' 
WAVCIS,ioos:station:WAVCIS:CSI09:1,2012-10-06T22:00:00Z,29.1015,-89.9782,0.0,2.132,87.0,,'11111222,11111222,99999999' 
WAVCIS,ioos:station:WAVCIS:CSI09:1,2012-10-06T23:00:00Z,29.1015,-89.9782,0.0,1.802,90.0,,'11111222,11111222,99999999' 
WAVCIS,ioos:station:WAVCIS:CSI09:1,2012-10-07T00:00:00Z,29.1015,-89.9782,0.0,1.727,90.0,,'11111222,11111222,99999999' 
WAVCIS,ioos:station:WAVCIS:CSI09:1,2012-10-07T01:00:00Z,29.1015,-89.9782,0.0,2.205,87.0,,'11111222,11111222,99999999' 
WAVCIS,ioos:station:WAVCIS:CSI09:1,2012-10-07T02:00:00Z,29.1015,-89.9782,0.0,1.701,59.0,,'11111222,11111222,99999999' 
WAVCIS,ioos:station:WAVCIS:CSI09:1,2012-10-07T03:00:00Z,29.1015,-89.9782,0.0,1.742,116.0,,'11111222,11111222,99999999' 
WAVCIS,ioos:station:WAVCIS:CSI09:1,2012-10-07T04:00:00Z,29.1015,-89.9782,0.0,0.812,91.0,,'11111222,11111222,99999999' 
WAVCIS,ioos:station:WAVCIS:CSI09:1,2012-10-07T05:00:00Z,29.1015,-89.9782,0.0,1.483,17.0,,'11111222,11111222,99999999' 
WAVCIS,ioos:station:WAVCIS:CSI09:1,2012-10-07T06:00:00Z,29.1015,-89.9782,0.0,8.04,32.0,,'11111222,11111222,99999999' 
WAVCIS,ioos:station:WAVCIS:CSI09:1,2012-10-07T07:00:00Z,29.1015,-89.9782,0.0,8.79,27.0,,'11111222,11111222,99999999' 
WAVCIS,ioos:station:WAVCIS:CSI09:1,2012-10-07T08:00:00Z,29.1015,-89.9782,0.0,9.49,24.0,,'11111222,11111222,99999999' 
WAVCIS,ioos:station:WAVCIS:CSI09:1,2012-10-07T09:00:00Z,29.1015,-89.9782,0.0,10.79,18.0,,'11111222,11111222,99999999' 
WAVCIS,ioos:station:WAVCIS:CSI09:1,2012-10-07T10:00:00Z,29.1015,-89.9782,0.0,10.23,16.0,,'11111222,11111222,99999999' 
WAVCIS,ioos:station:WAVCIS:CSI09:1,2012-10-07T11:00:00Z,29.1015,-89.9782,0.0,11.64,8.0,,'11111222,11111222,99999999' 
WAVCIS,ioos:station:WAVCIS:CSI09:1,2012-10-07T12:00:00Z,29.1015,-89.9782,0.0,10.89,9.0,,'11111222,11111222,99999999' 
WAVCIS,ioos:station:WAVCIS:CSI09:1,2012-10-07T13:00:00Z,29.1015,-89.9782,0.0,9.77,7.0,,'11111222,11111222,99999999' 
WAVCIS,ioos:station:WAVCIS:CSI09:1,2012-10-07T14:00:00Z,29.1015,-89.9782,0.0,10.88,12.0,,'11111222,11111222,99999999' 
WAVCIS,ioos:station:WAVCIS:CSI09:1,2012-10-07T15:00:00Z,29.1015,-89.9782,0.0,9.52,16.0,,'11111222,11111222,99999999' 
WAVCIS,ioos:station:WAVCIS:CSI09:1,2012-10-07T16:00:00Z,29.1015,-89.9782,0.0,7.89,26.0,,'11111222,11111222,99999999' 
WAVCIS,ioos:station:WAVCIS:CSI09:1,2012-10-07T17:00:00Z,29.1015,-89.9782,0.0,8.7,27.0,,'11111222,11111222,99999999' 
WAVCIS,ioos:station:WAVCIS:CSI09:1,2012-10-07T18:00:00Z,29.1015,-89.9782,0.0,7.16,23.0,,'11111222,11111222,99999999' 
WAVCIS,ioos:station:WAVCIS:CSI09:1,2012-10-07T19:00:00Z,29.1015,-89.9782,0.0,8.48,14.0,,'11111222,11111222,99999999' 
WAVCIS,ioos:station:WAVCIS:CSI09:1,2012-10-07T20:00:00Z,29.1015,-89.9782,0.0,8.79,11.0,,'11111222,11111222,99999999' 
WAVCIS,ioos:station:WAVCIS:CSI09:1,2012-10-07T21:00:00Z,29.1015,-89.9782,0.0,8.51,16.0,,'11111222,11111222,99999999' 
WAVCIS,ioos:station:WAVCIS:CSI09:1,2012-10-07T22:00:00Z,29.1015,-89.9782,0.0,8.21,18.0,,'11111222,11111222,99999999' 
WAVCIS,ioos:station:WAVCIS:CSI09:1,2012-10-07T23:00:00Z,29.1015,-89.9782,0.0,8.48,15.0,,'11111222,11111222,99999999' 
WAVCIS,ioos:station:WAVCIS:CSI09:1,2012-10-08T00:00:00Z,29.1015,-89.9782,0.0,9.44,13.0,,'11111222,11111222,99999999' 
WAVCIS,ioos:station:WAVCIS:CSI09:1,2012-10-08T01:00:00Z,29.1015,-89.9782,0.0,10.33,12.0,,'11111222,11111222,99999999' 
WAVCIS,ioos:station:WAVCIS:CSI09:1,2012-10-08T02:00:00Z,29.1015,-89.9782,0.0,10.31,16.0,,'11111222,11111222,99999999' 
WAVCIS,ioos:station:WAVCIS:CSI09:1,2012-10-08T03:00:00Z,29.1015,-89.9782,0.0,11.82,18.0,,'11111222,11111222,99999999' 
WAVCIS,ioos:station:WAVCIS:CSI09:1,2012-10-08T04:00:00Z,29.1015,-89.9782,0.0,10.51,24.0,,'11111222,11111222,99999999' 
WAVCIS,ioos:station:WAVCIS:CSI09:1,2012-10-08T05:00:00Z,29.1015,-89.9782,0.0,10.38,21.0,,'11111222,11111222,99999999' 
WAVCIS,ioos:station:WAVCIS:CSI09:1,2012-10-08T06:00:00Z,29.1015,-89.9782,0.0,8.59,19.0,,'11111222,11111222,99999999' 
WAVCIS,ioos:station:WAVCIS:CSI09:1,2012-10-08T07:00:00Z,29.1015,-89.9782,0.0,10.58,20.0,,'11111222,11111222,99999999' 
WAVCIS,ioos:station:WAVCIS:CSI09:1,2012-10-08T08:00:00Z,29.1015,-89.9782,0.0,9.06,23.0,,'11111222,11111222,99999999' 
WAVCIS,ioos:station:WAVCIS:CSI09:1,2012-10-08T09:00:00Z,29.1015,-89.9782,0.0,8.54,25.0,,'11111222,11111222,99999999' 
WAVCIS,ioos:station:WAVCIS:CSI09:1,2012-10-08T10:00:00Z,29.1015,-89.9782,0.0,7.12,25.0,,'11111222,11111222,99999999' 
WAVCIS,ioos:station:WAVCIS:CSI09:1,2012-10-08T11:00:00Z,29.1015,-89.9782,0.0,6.791,27.0,,'11111222,11111222,99999999' 
WAVCIS,ioos:station:WAVCIS:CSI09:1,2012-10-08T12:00:00Z,29.1015,-89.9782,0.0,8.47,21.0,,'11111222,11111222,99999999' 
WAVCIS,ioos:station:WAVCIS:CSI09:1,2012-10-08T13:00:00Z,29.1015,-89.9782,0.0,9.13,14.0,,'11111222,11111222,99999999' 
WAVCIS,ioos:station:WAVCIS:CSI09:1,2012-10-08T14:00:00Z,29.1015,-89.9782,0.0,10.98,5.0,,'11111222,11111222,99999999' 
WAVCIS,ioos:station:WAVCIS:CSI09:1,2012-10-08T15:00:00Z,29.1015,-89.9782,0.0,8.97,19.0,,'11111222,11111222,99999999' 
WAVCIS,ioos:station:WAVCIS:CSI09:1,2012-10-08T16:00:00Z,29.1015,-89.9782,0.0,9.59,11.0,,'11111222,11111222,99999999' 
WAVCIS,ioos:station:WAVCIS:CSI09:1,2012-10-08T17:00:00Z,29.1015,-89.9782,0.0,10.98,11.0,,'11111222,11111222,99999999' 
WAVCIS,ioos:station:WAVCIS:CSI09:1,2012-10-08T18:00:00Z,29.1015,-89.9782,0.0,8.27,23.0,,'11111222,11111222,99999999' 
WAVCIS,ioos:station:WAVCIS:CSI09:1,2012-10-08T19:00:00Z,29.1015,-89.9782,0.0,8.14,5.0,,'11111222,11111222,99999999' 
WAVCIS,ioos:station:WAVCIS:CSI09:1,2012-10-08T20:00:00Z,29.1015,-89.9782,0.0,6.627,13.0,,'11111222,11111222,99999999' 
WAVCIS,ioos:station:WAVCIS:CSI09:1,2012-10-08T21:00:00Z,29.1015,-89.9782,0.0,6.506,13.0,,'11111222,11111222,99999999' 
WAVCIS,ioos:station:WAVCIS:CSI09:1,2012-10-08T22:00:00Z,29.1015,-89.9782,0.0,6.354,2.0,,'11111222,11111222,99999999' 
WAVCIS,ioos:station:WAVCIS:CSI09:1,2012-10-08T23:00:00Z,29.1015,-89.9782,0.0,7.47,1.0,,'11111222,11111222,99999999' 
WAVCIS,ioos:station:WAVCIS:CSI09:1,2012-10-09T00:00:00Z,29.1015,-89.9782,0.0,6.552,7.0,,'11111222,11111222,99999999' 
WAVCIS,ioos:station:WAVCIS:CSI09:1,2012-10-09T01:00:00Z,29.1015,-89.9782,0.0,6.426,13.0,,'11111222,11111222,99999999' 
WAVCIS,ioos:station:WAVCIS:CSI09:1,2012-10-09T02:00:00Z,29.1015,-89.9782,0.0,6.367,29.0,,'11111222,11111222,99999999' 
WAVCIS,ioos:station:WAVCIS:CSI09:1,2012-10-09T03:00:00Z,29.1015,-89.9782,0.0,6.69,19.0,,'11111222,11111222,99999999' 
WAVCIS,ioos:station:WAVCIS:CSI09:1,2012-10-09T04:00:00Z,29.1015,-89.9782,0.0,7.72,21.0,,'11111222,11111222,99999999' 
WAVCIS,ioos:station:WAVCIS:CSI09:1,2012-10-09T05:00:00Z,29.1015,-89.9782,0.0,7.51,24.0,,'11111222,11111222,99999999' 
WAVCIS,ioos:station:WAVCIS:CSI09:1,2012-10-09T06:00:00Z,29.1015,-89.9782,0.0,7.05,33.0,,'11111222,11111222,99999999' 
WAVCIS,ioos:station:WAVCIS:CSI09:1,2012-10-09T07:00:00Z,29.1015,-89.9782,0.0,6.253,41.0,,'11111222,11111222,99999999' 